STARLINK-35302, 65845

Orbit data source: Space-Track

STARLINK-35302, 65845 is a payload satellite owned by SpaceX/Seattle (US) in LEO that was launched on Mon, 29 Sep 2025 UTC via an FALCON 9 launch vehicle from the Air Force Western Test Range (AFWTR). Payload-class satellites include a variety of spacecraft equipped with specific instruments for various scientific and technological missions. These include communications satellites like Starlink; space stations such as the ISS; scientific satellites like the Hubble; Earth observation satellites from companies like Planet Labs, Umbra, and HawkEye 360; GPS; miniature CubeSats for education and research; and military/defense satellites.

Loading next visibility...
Identifier
65845, 2025-221Y
Orbit
LEO
Country
Flag of USUS
Related business
Manufacturer
SpaceX/Seattle
Mission
Operational Commercial Communications
Bus & Motor
STARLINK V2MO, Unknown motor
Mass
575 kg wet, ~530 kg dry
Launch date (UTC)
2025-09-29 (9 months ago)
Launch vehicle
FALCON 9
Launch site
Air Force Western Test Range (AFWTR)
Object type
Payload
Rocket body
Debris
Shape & HBR
Box + 2 Pan, 17.7 m
Radar Cross Section
36.964 m², Large (>1 m²)

Expand to show TLE details & history
Last TLE update: 16 hours ago

TLE from 16 hours ago
0 STARLINK-35302
1 65845U 25221Y   26171.18137399  .00019872  00000-0  59765-3 0  9990
2 65845  53.1609 330.9835 0001148  84.7815 275.3319 15.34402840 40445
Epoch: 2026-06-20T04:21Z
TLE epoch observation values (Epoch: 2026-06-20T04:21:10.712Z)
Latitude
-0°
Longitude
-2.71082°
Altitude
463.523 km
Speed
7.636 km/s
True Right ascension
22h 03m 56s
True Declination
0° 00' 00"
Sunlit
Object was in full shadow at epoch
Visualization orbit readout
Latitude
Unknown
Longitude
Unknown
Altitude
Unknown
Speed
Unknown
Apparent Right ascension
Unknown
Apparent Declination
Unknown
Sunlit
N/A
Visualization observer readout
Local Sidereal Time
07:19:20
Azimuth
Unknown
Elevation
Unknown
Doppler factor
Unknown
Orbital elements
Apogee altitude
463.737 km
Perigee altitude
462.166 km
Semi-major axis
6,841.089 km
Eccentricity
0.00011
Inclination
53.1609°
RAAN
330.9835°
Arg. of periapsis
84.7815°
True anomaly
275.3188°
Mean anomaly
275.3319°
Eccentric anomaly
275.32535°
Mean motion
3.83579 °/min
Orbital period
93.85 mins
BSTAR
0.00059765
Loading maneuver chart data...
Computing Atmospheric mass density...
Loading historical data...
Loading historical data...
Loading historical data...
Loading historical data...
Loading historical data...
Loading historical data...
Loading historical data...

Documentation

Showing up to 5 results
|